User: anonymous   Login
Location: Valdosta
(30.8330°N, 83.2790°W)
Time: 14:45:19
(UTC-04:00)
Language:

Uribyol 2 - Orbit

View from above orbital plane
View from above orbital plane
View from above satellite
View from above satellite

Ground track
Ground track

The orbit data is extracted from the following two-line orbital elements,

1 22828U 93061F   17206.19874392 -.00000003 +00000-0 +16365-4 0  9999
2 22828 098.8000 171.0706 0009917 172.6124 187.5205 14.30641597211147
Epoch (UTC): 25 July 2017 04:46:11
Eccentricity: 0.0009917
inclination: 98.8000°
perigee height: 782 km
apogee height: 796 km
right ascension of ascending node: 171.0706°
argument of perigee: 172.6124°
revolutions per day: 14.30641597
mean anomaly at epoch: 187.5205°
orbit number at epoch: 21114

The dashed part of the orbit path shows where the satellite is in the earth's shadow,  

DLR